Volver al catálogo

STARLINK-35738

ActivoComunicacionesVLEO
NORAD 67116·PAYLOAD·🇺🇸 United States

Lanzado Dec 15, 2025 desde Cape Canaveral Space Force Station

Loading…

Próximos Pases (próximas 24 horas)

TLE

ActualizadoSource: CelesTrak SupGP

Época: Sep 15, 2026, 03:09 UTC

1 67116C 25299Q   26258.13173611 -.00024600  00000+0 -89110-3 0  2587
2 67116  42.9997 178.7587 0001125 277.4481  65.6839 15.27587303    17

Sigue STARLINK-35738 en tiempo real con AllMySat

Download on the App Store